[[{"header":{"parameterUnit":"m.s-1","parameterCategory":2,"la1":30.2992,"la2":30.254,"lo1":-89.0895,"lo2":-89.0443,"dy":0.0025,"dx":0.0025,"nx":19,"ny":19,"refTime":"2026-03-20T21:00:00:Z","depth":"0","parameterNumber":2,"parameterNumberName":"U-component_of_CURRENTS"},"data":[0,0,0,0.1373,0.1369,0.1313,0.1314,0.1448,0.1449,0,0,0,0,0,0,0,0,0,0,0,0.1468,0.1468,0.1374,0.1369,0.1313,0.1314,0.1448,0.1449,0,0,0,0,0,0,0,0,0,0,0,0.1469,0.1468,0.1467,0.1368,0.1313,0.1314,0.1448,0.1459,0,0,0,0,0,0,0,0,0,0,0.1497,0.148,0.1468,0.1467,0.1367,0.1313,0.1314,0.1459,0.1459,0.1505,0,0.1488,0,0.1403,0.1455,0.1455,0,0,0,0.1454,0.1479,0.1479,0.1467,0.1365,0.1312,0.1363,0.1458,0.1458,0.1506,0.1488,0.1489,0.1405,0.1455,0.1456,0.1537,0.1538,0,0,0.1457,0.1451,0.1478,0.1478,0.1342,0.1363,0.1359,0.1456,0.1448,0.1488,0.149,0.1408,0.1456,0.1456,0.1537,0.1537,0,0,0,0.1409,0.1453,0.1448,0.1477,0.1411,0.136,0.1355,0.1446,0.1448,0.149,0.1409,0.1456,0.1457,0.1537,0.1537,0.1482,0,0,0,0.1415,0.1417,0.145,0.1444,0.1408,0.138,0.1343,0.1445,0.1448,0.1409,0.1456,0.1458,0.1537,0.1537,0.1483,0.1476,0,0,0,0.1472,0.142,0.1417,0.1444,0.1373,0.1377,0.1386,0.1445,0.1395,0.1455,0.1458,0.1536,0.1537,0.1484,0.1477,0.1464,0,0,0,0.1469,0.1449,0.1417,0.1345,0.1373,0.1335,0.1385,0.1375,0.1419,0.1457,0.1537,0.1537,0.1484,0.1478,0.1465,0.1379,0.1368,0,0,0.1446,0.1445,0.1399,0.1366,0.1288,0.135,0.1333,0.141,0.1453,0.1534,0.1534,0.1483,0.1478,0.1464,0.1412,0.14,0,0,0,0.1391,0.1354,0.1323,0.1255,0.1246,0.1293,0.1333,0.1376,0.1455,0.1459,0.151,0.151,0.1502,0.1453,0.1444,0.1403,0.154,0.154,0.154,0.1326,0.13,0.1246,0.1228,0.1224,0.1265,0.1327,0.1412,0.1432,0.1461,0.1484,0.1466,0.1413,0.1406,0.1365,0.1498,0.1498,0.1498,0.1498,0.1254,0.1208,0.1217,0.1171,0.1234,0.1255,0.1347,0.1381,0.1445,0.1469,0.1463,0.1422,0.1392,0.1352,0.1494,0.1495,0.1495,0.1496,0.1496,0.1147,0.1158,0.114,0.1143,0.1178,0.1242,0.128,0.1351,0.1407,0.1417,0.1364,0.1364,0.1313,0.1398,0.1398,0.1398,0.1397,0.1397,0.1397,0.1089,0.1089,0.1108,0.1103,0.1119,0.1144,0.1227,0.1262,0.1295,0.1319,0.1318,0.1302,0.1436,0.1421,0.1396,0.1396,0.1396,0.1396,0.1397,0.0998,0.1035,0.1041,0.1062,0.1085,0.1024,0.1106,0.1124,0.1171,0.1166,0.1162,0.1272,0.1286,0.1293,0.1276,0.1215,0.1215,0.1215,0.1215,0.0989,0.0991,0.105,0.1057,0.1033,0.0989,0.0907,0.091,0.0982,0.0993,0.1066,0.1052,0.1061,0.1063,0.1075,0.1055,0.0939,0.0939,0.0939,0.102,0.1032,0.1053,0.1043,0.1008,0.0917,0.0768,0.0672,0.0791,0.0928,0.1026,0.1038,0.1021,0.1039,0.1049,0.107,0.1041,0,0]},{"header":{"parameterUnit":"m.s-1","parameterCategory":2,"la1":30.2992,"la2":30.254,"lo1":-89.0895,"lo2":-89.0443,"dy":0.0025,"dx":0.0025,"nx":19,"ny":19,"refTime":"2026-03-20T21:00:00:Z","depth":"0","parameterNumber":3,"parameterNumberName":"V-component_of_CURRENTS"},"data":[0,0,0,-0.0318,-0.0317,-0.0146,-0.0145,0.0112,0.0113,0,0,0,0,0,0,0,0,0,0,0,-0.0339,-0.0339,-0.0318,-0.0317,-0.0147,-0.0145,0.0112,0.0113,0,0,0,0,0,0,0,0,0,0,0,-0.0339,-0.0339,-0.0339,-0.0317,-0.0147,-0.0145,0.0111,-0.0008,0,0,0,0,0,0,0,0,0,0,-0.0171,-0.0216,-0.0339,-0.0339,-0.0317,-0.0147,-0.0144,-0.0013,-0.0001,0.0021,0,0.0022,0,0.0022,0.0124,0.0125,0,0,0,-0.0238,-0.0226,-0.0212,-0.0339,-0.0316,-0.0148,-0.0201,-0.0006,0.0008,0.0037,0.0026,0.0034,0.0026,0.0125,0.0126,0.0306,0.0307,0,0,-0.0248,-0.0268,-0.0222,-0.0204,-0.0304,-0.0207,-0.0197,0.0003,0.0022,0.0027,0.0039,0.003,0.0126,0.0127,0.0305,0.0306,0,0,0,-0.0328,-0.0275,-0.0262,-0.0213,-0.0214,-0.0204,-0.0192,0.0016,0.001,0.0042,0.0033,0.0127,0.0129,0.0304,0.0306,0.028,0,0,0,-0.033,-0.0328,-0.0267,-0.0271,-0.022,-0.0105,-0.0184,-0.0001,0.0019,0.0032,0.0127,0.0131,0.0304,0.0305,0.0279,0.0255,0,0,0,-0.0341,-0.0329,-0.0326,-0.0274,-0.0244,-0.0108,-0.0096,0.0005,0.0009,0.0125,0.0131,0.0303,0.0305,0.0278,0.0254,0.0264,0,0,0,-0.0342,-0.0324,-0.0326,-0.0287,-0.0247,-0.0139,-0.0097,0.0015,0.0114,0.0128,0.0304,0.0306,0.0277,0.0254,0.0263,0.0258,0.026,0,0,-0.0319,-0.0321,-0.0295,-0.0295,-0.0212,-0.0155,-0.0028,0.0105,0.015,0.0252,0.0257,0.0279,0.0254,0.0264,0.0363,0.0361,0,0,0,-0.0286,-0.0272,-0.0242,-0.0198,-0.0132,-0.0041,0.007,0.0122,0.0241,0.0197,0.0324,0.031,0.0316,0.0313,0.0313,0.033,0.0314,0.0314,0.0314,-0.0283,-0.0241,-0.0176,-0.0115,-0.0048,0.0061,0.0143,0.0235,0.0272,0.0316,0.0322,0.0356,0.0356,0.0355,0.0374,0.0368,0.0368,0.0368,0.0368,-0.0235,-0.0174,-0.0129,-0.0053,0.002,0.0114,0.0225,0.0258,0.0338,0.0356,0.0363,0.0328,0.0353,0.0374,0.0367,0.0367,0.0367,0.0367,0.0368,-0.02,-0.0156,-0.0137,-0.0042,0.0043,0.0134,0.021,0.0275,0.0316,0.0325,0.0339,0.0339,0.0327,0.0333,0.0333,0.0333,0.0333,0.0333,0.0333,-0.0155,-0.013,-0.0087,-0.0017,0.0024,0.0103,0.0199,0.0241,0.0294,0.0315,0.0316,0.0356,0.0346,0.0312,0.0332,0.0333,0.0333,0.0333,0.0333,-0.0064,-0.008,-0.003,-0.0002,0.0078,0.0109,0.0179,0.0239,0.0277,0.0289,0.034,0.0322,0.0328,0.0329,0.0297,0.0312,0.0312,0.0312,0.0312,-0.0004,-0.0007,0.0054,0.0079,0.0119,0.0139,0.015,0.0193,0.0276,0.0315,0.0342,0.0351,0.0351,0.0359,0.036,0.0329,0.0353,0.0353,0.0353,0.0059,0.0061,0.0116,0.0125,0.0149,0.0147,0.0125,0.0137,0.0272,0.0357,0.0368,0.0366,0.0382,0.0381,0.0396,0.0396,0.0346,0,0]}],[{"header":{"parameterUnit":"m.s-1","parameterCategory":2,"la1":30.2992,"la2":30.254,"lo1":-89.0895,"lo2":-89.0443,"dy":0.0025,"dx":0.0025,"nx":19,"ny":19,"refTime":"2026-03-20T21:00:00:Z","depth":"2","parameterNumber":2,"parameterNumberName":"U-component_of_CURRENTS"},"data":[0,0,0,-0.0213,-0.0202,-0.0025,-0.0027,0.0175,0.0179,0,0,0,0,0,0,0,0,0,0,0,-0.047,-0.0469,-0.0214,-0.0201,-0.0025,-0.0027,0.0174,0.0179,0,0,0,0,0,0,0,0,0,0,0,-0.0471,-0.0469,-0.0468,-0.0199,-0.0024,-0.0027,0.0173,-0.0003,0,0,0,0,0,0,0,0,0,0,-0.0193,-0.0259,-0.047,-0.0468,-0.0197,-0.0024,-0.0027,-0.0014,0.0008,0.0152,0,0.0178,0,0.037,0.0211,0.0213,0,0,0,-0.0406,-0.0278,-0.0246,-0.0468,-0.0192,-0.0023,-0.0162,-0.0003,0.0022,0.0182,0.0184,0.0198,0.0373,0.0214,0.0216,0.0637,0.0638,0,0,-0.0415,-0.0416,-0.0264,-0.0231,-0.0138,-0.0166,-0.0154,0.001,0.0053,0.0185,0.0207,0.0377,0.0217,0.0221,0.0636,0.0637,0,0,0,-0.0306,-0.0422,-0.0402,-0.0246,-0.0106,-0.0156,-0.0143,0.0038,0.0041,0.0211,0.0379,0.022,0.0226,0.0634,0.0636,0.0594,0,0,0,-0.0322,-0.0341,-0.0406,-0.0402,-0.0109,0.0017,-0.0117,0.0018,0.0054,0.0378,0.022,0.023,0.0633,0.0635,0.0593,0.0633,0,0,0,-0.0479,-0.0349,-0.0341,-0.0403,-0.0211,0.0017,0.0019,0.0025,0.0171,0.0213,0.0232,0.0632,0.0635,0.0591,0.063,0.0596,0,0,0,-0.0483,-0.0393,-0.0343,-0.0161,-0.0211,-0.01,0.0018,0.0137,0.0165,0.0222,0.0633,0.0636,0.0591,0.0628,0.0595,0.0458,0.0452,0,0,-0.0369,-0.0379,-0.0272,-0.0213,-0.0024,-0.014,0.0049,0.0171,0.0258,0.0541,0.055,0.0593,0.063,0.0595,0.0603,0.0591,0,0,0,-0.023,-0.0185,-0.0106,0.0026,0.0084,0.0121,0.0202,0.0258,0.0426,0.0345,0.0656,0.0684,0.066,0.0579,0.0571,0.0648,0.0647,0.0647,0.0647,-0.0099,-0.0061,0.0057,0.0101,0.0195,0.0298,0.0311,0.04,0.0493,0.0571,0.0692,0.0711,0.0626,0.0618,0.0713,0.0713,0.0713,0.0713,0.0713,-0.0045,0.0023,0.0072,0.015,0.0219,0.035,0.0509,0.0543,0.0685,0.073,0.0705,0.0596,0.0606,0.0711,0.0711,0.0712,0.0712,0.0712,0.0712,0.0008,0.0024,0.0035,0.0128,0.0306,0.0453,0.0568,0.0625,0.0696,0.0702,0.0616,0.0614,0.0655,0.0689,0.0689,0.0689,0.0689,0.0689,0.0689,0.0012,0.0053,0.0119,0.0206,0.0333,0.042,0.0591,0.0581,0.0594,0.0623,0.0621,0.0704,0.0705,0.0658,0.069,0.069,0.069,0.069,0.069,0.0121,0.0173,0.0243,0.0305,0.0445,0.0518,0.0533,0.0458,0.0481,0.0449,0.0533,0.0537,0.054,0.0546,0.0498,0.0487,0.0487,0.0487,0.0487,0.0164,0.0227,0.0302,0.0474,0.0536,0.055,0.0464,0.0288,0.0268,0.0209,0.0221,0.0171,0.0185,0.0167,0.0182,0.0127,0.0019,0.0018,0.0017,0.0179,0.0178,0.0263,0.0463,0.0598,0.0536,0.0398,0.0187,-0.0004,-0.0001,0.0143,0.0455,0.0412,0.0422,0.0423,0.0435,0.0358,0,0]},{"header":{"parameterUnit":"m.s-1","parameterCategory":2,"la1":30.2992,"la2":30.254,"lo1":-89.0895,"lo2":-89.0443,"dy":0.0025,"dx":0.0025,"nx":19,"ny":19,"refTime":"2026-03-20T21:00:00:Z","depth":"2","parameterNumber":3,"parameterNumberName":"V-component_of_CURRENTS"},"data":[0,0,0,-0.044,-0.0437,-0.0288,-0.0288,-0.0195,-0.0194,0,0,0,0,0,0,0,0,0,0,0,-0.0551,-0.0551,-0.0441,-0.0436,-0.0288,-0.0288,-0.0195,-0.0194,0,0,0,0,0,0,0,0,0,0,0,-0.0551,-0.0551,-0.0551,-0.0435,-0.0288,-0.0288,-0.0195,-0.0288,0,0,0,0,0,0,0,0,0,0,-0.0421,-0.0462,-0.0551,-0.0551,-0.0434,-0.0289,-0.0288,-0.0291,-0.0282,-0.0283,0,-0.0288,0,-0.0205,-0.0188,-0.0188,0,0,0,-0.0456,-0.047,-0.0457,-0.0551,-0.0433,-0.0289,-0.0361,-0.0285,-0.0275,-0.0271,-0.0286,-0.028,-0.0204,-0.0188,-0.0187,-0.0044,-0.0043,0,0,-0.0464,-0.049,-0.0465,-0.0452,-0.0432,-0.0365,-0.0356,-0.0278,-0.0269,-0.0285,-0.0276,-0.0202,-0.0187,-0.0186,-0.0045,-0.0043,0,0,0,-0.0474,-0.0496,-0.0483,-0.0459,-0.0405,-0.036,-0.035,-0.0273,-0.0278,-0.0274,-0.0201,-0.0187,-0.0185,-0.0046,-0.0044,-0.0052,0,0,0,-0.048,-0.0499,-0.0488,-0.0496,-0.0406,-0.0308,-0.0347,-0.0286,-0.0271,-0.0202,-0.0187,-0.0185,-0.0047,-0.0045,-0.0054,-0.0067,0,0,0,-0.0551,-0.0503,-0.0506,-0.0499,-0.0421,-0.0308,-0.0307,-0.0281,-0.0226,-0.0188,-0.0184,-0.0047,-0.0045,-0.0056,-0.0069,-0.0065,0,0,0,-0.0556,-0.0551,-0.0508,-0.0451,-0.0423,-0.0354,-0.0306,-0.0247,-0.0221,-0.0186,-0.0046,-0.0044,-0.0056,-0.0071,-0.0066,-0.0061,-0.0056,0,0,-0.0549,-0.055,-0.051,-0.0466,-0.0387,-0.0374,-0.027,-0.0219,-0.018,-0.0085,-0.0081,-0.0053,-0.0069,-0.0065,0.0065,0.0066,0,0,0,-0.0504,-0.0489,-0.0455,-0.0388,-0.0342,-0.028,-0.0228,-0.0183,-0.0085,-0.0144,-0.0006,-0.0015,-0.0014,-0.0011,-0.0009,-0.0034,-0.0034,-0.0034,-0.0035,-0.0573,-0.0496,-0.0429,-0.0347,-0.0299,-0.0217,-0.0172,-0.0096,-0.0072,-0.0013,0.0013,0.0059,0.0065,0.0066,0.0059,0.0059,0.0059,0.0059,0.0059,-0.0536,-0.0448,-0.0392,-0.0295,-0.0244,-0.0178,-0.0076,-0.0048,0.004,0.0065,0.0067,0.0025,0.0067,0.006,0.006,0.006,0.006,0.006,0.006,-0.0475,-0.0428,-0.0391,-0.0298,-0.021,-0.0125,-0.005,0.0001,0.0043,0.0048,0.0066,0.0066,0.0018,0.0061,0.0061,0.0061,0.0061,0.0061,0.0061,-0.0427,-0.0392,-0.0353,-0.0268,-0.0219,-0.0139,-0.0036,-0.0007,0.0044,0.0064,0.0064,0.0059,0.0059,0.0021,0.0061,0.0061,0.0061,0.0061,0.0061,-0.0289,-0.0352,-0.0298,-0.0268,-0.0165,-0.0106,-0.0043,0.0014,0.005,0.0063,0.0072,0.0071,0.007,0.0069,0.0033,0.0074,0.0074,0.0074,0.0074,-0.0273,-0.0269,-0.0258,-0.019,-0.0123,-0.0061,-0.0041,-0.004,0.0003,-0.0006,-0.0003,-0.0006,-0.0004,-0.0011,-0.0009,-0.0048,-0.0028,-0.0028,-0.0029,-0.026,-0.0278,-0.0233,-0.0167,-0.0067,-0.0045,-0.0059,-0.008,-0.0061,-0.0037,-0.0068,0.0076,0.0081,0.0081,0.0078,0.0077,0.0018,0,0]}],[{"header":{"parameterUnit":"m.s-1","parameterCategory":2,"la1":30.2992,"la2":30.254,"lo1":-89.0895,"lo2":-89.0443,"dy":0.0025,"dx":0.0025,"nx":19,"ny":19,"refTime":"2026-03-20T21:00:00:Z","depth":"4","parameterNumber":2,"parameterNumberName":"U-component_of_CURRENTS"},"data":[0,0,0,-0.0814,-0.0815,-0.09,-0.09,-0.1053,-0.1055,0,0,0,0,0,0,0,0,0,0,0,-0.0779,-0.0779,-0.0813,-0.0815,-0.09,-0.09,-0.1053,-0.1055,0,0,0,0,0,0,0,0,0,0,0,-0.0778,-0.0779,-0.0779,-0.0816,-0.0899,-0.09,-0.1053,-0.0978,0,0,0,0,0,0,0,0,0,0,-0.0891,-0.0852,-0.0779,-0.0779,-0.0816,-0.0899,-0.09,-0.0974,-0.0983,-0.1027,0,-0.1035,0,-0.1052,-0.1066,-0.1066,0,0,0,-0.0818,-0.0845,-0.0868,-0.078,-0.0817,-0.0899,-0.0862,-0.0979,-0.0989,-0.1039,-0.1038,-0.1043,-0.1055,-0.1067,-0.1068,-0.1279,-0.128,0,0,-0.0813,-0.0798,-0.0861,-0.0874,-0.0834,-0.086,-0.0865,-0.0984,-0.0994,-0.1038,-0.1047,-0.1058,-0.1068,-0.1069,-0.1278,-0.1279,0,0,0,-0.0798,-0.0795,-0.0814,-0.0868,-0.0882,-0.0862,-0.0868,-0.0988,-0.0995,-0.1049,-0.1059,-0.1069,-0.1071,-0.1276,-0.1278,-0.1311,0,0,0,-0.0796,-0.0786,-0.0812,-0.0804,-0.0879,-0.0931,-0.0869,-0.0986,-0.1,-0.1059,-0.1069,-0.1073,-0.1275,-0.1277,-0.1307,-0.1379,0,0,0,-0.0776,-0.0784,-0.0792,-0.0803,-0.0839,-0.0929,-0.0942,-0.0989,-0.1007,-0.1066,-0.1073,-0.1274,-0.1277,-0.1304,-0.1373,-0.1411,0,0,0,-0.076,-0.0769,-0.0791,-0.0817,-0.0838,-0.0933,-0.0941,-0.1049,-0.1111,-0.107,-0.1275,-0.1278,-0.1303,-0.1369,-0.1407,-0.0988,0,0,0,-0.0761,-0.0769,-0.0787,-0.0809,-0.0865,-0.0922,-0.0997,-0.1094,-0.1159,-0.1237,-0.1242,-0.1308,-0.1372,-0.141,-0.1142,0,0,0,0,-0.0781,-0.0784,-0.0806,-0.0848,-0.0926,-0.0995,-0.1087,-0.1144,-0.1275,-0.1204,-0.1351,-0.1393,-0.1414,-0.116,-0.129,-0.129,-0.129,-0.1289,-0.1289,-0.0735,-0.0784,-0.0825,-0.0888,-0.0964,-0.1076,-0.1156,-0.126,-0.1306,-0.1397,-0.1448,-0.155,-0.1283,-0.1451,-0.1451,-0.1451,-0.1452,-0.1452,-0.1452,-0.07,-0.0735,-0.0829,-0.0908,-0.1022,-0.1144,-0.1269,-0.1333,-0.1509,-0.1522,-0.1538,-0.1249,-0.1456,-0.1455,-0.1455,-0.1454,-0.1454,-0.1453,-0.1453,-0.0661,-0.0694,-0.0782,-0.0938,-0.1101,-0.1235,-0.1302,-0.1494,-0.1596,-0.1659,-0.1407,-0.1603,-0.1566,-0.1681,-0.1682,-0.1682,-0.1683,-0.1683,-0.1684,-0.0599,-0.0677,-0.0797,-0.0964,-0.1105,-0.1254,-0.1407,-0.1375,-0.1515,-0.1464,-0.1721,-0.1629,-0.1621,-0.1583,-0.1691,-0.169,-0.1689,-0.1688,-0.1688,-0.0548,-0.0629,-0.0767,-0.0893,-0.1047,-0.1108,-0.1225,-0.1123,-0.1106,-0.1069,-0.1316,-0.1332,-0.1293,-0.1295,-0.1242,-0.1255,-0.1249,-0.1245,0,-0.0535,-0.0563,-0.0723,-0.0795,-0.0828,-0.0931,-0.0695,-0.0659,-0.0893,-0.0984,-0.1141,-0.1434,-0.144,-0.1399,-0.1393,-0.1331,0,0,0,-0.0514,-0.0553,-0.0624,-0.0668,-0.0693,-0.0565,-0.0618,-0.0579,-0.0952,-0.0638,-0.112,-0.1152,-0.1084,-0.1714,-0.1695,-0.1686,-0.1623,0,0]},{"header":{"parameterUnit":"m.s-1","parameterCategory":2,"la1":30.2992,"la2":30.254,"lo1":-89.0895,"lo2":-89.0443,"dy":0.0025,"dx":0.0025,"nx":19,"ny":19,"refTime":"2026-03-20T21:00:00:Z","depth":"4","parameterNumber":3,"parameterNumberName":"V-component_of_CURRENTS"},"data":[0,0,0,0.011,0.0108,0.0015,0.0015,-0.003,-0.003,0,0,0,0,0,0,0,0,0,0,0,0.0153,0.0152,0.011,0.0108,0.0015,0.0015,-0.003,-0.003,0,0,0,0,0,0,0,0,0,0,0,0.0153,0.0153,0.0152,0.0107,0.0015,0.0015,-0.003,0.0021,0,0,0,0,0,0,0,0,0,0,0.0102,0.0126,0.0153,0.0152,0.0107,0.0015,0.0015,0.0023,0.0018,0.0033,0,0.0023,0,-0.0007,-0.0032,-0.0032,0,0,0,0.0107,0.013,0.0109,0.0152,0.0106,0.0015,0.0057,0.002,0.0014,0.0027,0.0022,0.002,-0.0008,-0.0032,-0.0032,-0.007,-0.007,0,0,0.0112,0.0131,0.0112,0.0106,0.009,0.006,0.0054,0.0016,0.0013,0.0022,0.0018,-0.0009,-0.0032,-0.0032,-0.007,-0.007,0,0,0,0.0127,0.0135,0.0113,0.0109,0.0084,0.0057,0.005,0.0015,0.0009,0.0017,-0.0009,-0.0032,-0.0032,-0.0069,-0.007,-0.0113,0,0,0,0.0131,0.0144,0.0116,0.0126,0.0084,0.0036,0.0051,0.0011,0.0005,-0.0009,-0.0032,-0.0032,-0.0069,-0.0069,-0.0111,-0.0145,0,0,0,0.0156,0.0146,0.0138,0.0127,0.0086,0.0036,0.0026,0.0009,-0.001,-0.0032,-0.0033,-0.0069,-0.0069,-0.011,-0.0142,-0.0114,0,0,0,0.0174,0.013,0.0139,0.007,0.0087,0.0002,0.0026,-0.002,-0.004,-0.0032,-0.0069,-0.007,-0.0109,-0.0139,-0.0113,-0.0129,0,0,0,0.012,0.0124,0.0077,0.0082,-0.0031,0.0014,-0.0077,-0.0076,-0.0043,-0.005,-0.0052,-0.0112,-0.0141,-0.0114,-0.0167,0,0,0,0,0.0058,0.0028,-0.0006,-0.0066,-0.0105,-0.0136,-0.0129,-0.0112,-0.0102,-0.0059,-0.0113,-0.013,-0.0111,-0.0117,-0.0073,-0.0073,-0.0073,-0.0073,-0.0072,0.0014,-0.0035,-0.0125,-0.0179,-0.0215,-0.0235,-0.0247,-0.0215,-0.0162,-0.0147,-0.0166,-0.0179,-0.019,-0.0158,-0.0158,-0.0158,-0.0158,-0.0158,-0.0158,-0.0092,-0.0158,-0.0201,-0.0299,-0.032,-0.0358,-0.0347,-0.0303,-0.026,-0.0215,-0.0192,-0.0165,-0.0163,-0.0162,-0.0161,-0.0161,-0.016,-0.016,-0.016,-0.0141,-0.0179,-0.023,-0.0354,-0.0407,-0.0419,-0.0439,-0.0406,-0.0305,-0.0293,-0.0225,-0.0197,-0.019,-0.0234,-0.0234,-0.0234,-0.0234,-0.0234,-0.0234,-0.0163,-0.022,-0.0306,-0.0406,-0.045,-0.0478,-0.0479,-0.0459,-0.038,-0.0285,-0.0268,-0.0204,-0.0201,-0.0194,-0.0234,-0.0234,-0.0234,-0.0234,-0.0234,-0.0242,-0.0243,-0.0369,-0.0429,-0.0508,-0.0506,-0.0522,-0.0478,-0.0424,-0.0356,-0.0272,-0.027,-0.0247,-0.0243,-0.0236,-0.029,-0.0291,-0.0291,0,-0.027,-0.0289,-0.0411,-0.0476,-0.0518,-0.0504,-0.0459,-0.0439,-0.0369,-0.0322,-0.0372,-0.0275,-0.0274,-0.0248,-0.0245,-0.0237,0,0,0,-0.0319,-0.0335,-0.0412,-0.0463,-0.0496,-0.0429,-0.043,-0.0415,-0.0356,-0.0405,-0.0299,-0.0297,-0.0372,-0.0236,-0.0196,-0.0193,-0.0178,0,0]}]]